FW4300 Weather Reports


time (UTC)temp
C
wind
direction
speed
KPH
gust
KPH
rain 1hr
cm
rain 24hr
cm
rain mn
cm
humidity
%
barometer
mb
20260502232545 26 108 0.0 0.0 0.00 0.00 0.00 63 1016.9
20260502232045 26 121 0.0 0.0 0.00 0.00 0.00 63 1016.7
20260502231545 26 84 0.0 0.0 0.00 0.00 0.00 63 1016.7
20260502231045 26 132 0.0 0.0 0.00 0.00 0.00 63 1016.7
20260502230545 26 135 0.0 0.0 0.00 0.00 0.00 63 1016.6
20260502230044 26 157 0.0 0.0 0.00 0.00 0.00 63 1016.6
20260502225547 26 130 0.0 0.0 0.00 0.00 0.00 63 1016.5
20260502225044 27 115 0.0 0.0 0.00 0.00 0.00 62 1016.6
20260502224546 27 126 0.0 0.0 0.00 0.00 0.00 62 1016.5
20260502224043 27 119 0.0 0.0 0.00 0.00 0.00 61 1016.5
20260502223543 27 171 0.0 0.0 0.00 0.00 0.00 60 1016.4
20260502223052 27 115 0.0 0.0 0.00 0.00 0.00 60 1016.3
20260502222543 27 160 0.0 0.0 0.00 0.00 0.00 60 1016.3
20260502222043 28 155 0.0 0.0 0.00 0.00 0.00 59 1016.3
20260502221544 28 160 0.0 0.0 0.00 0.00 0.00 60 1016.3
20260502221041 28 175 0.0 0.0 0.00 0.00 0.00 60 1016.3
20260502220541 28 124 0.0 0.0 0.00 0.00 0.00 59 1016.2
20260502220042 28 122 0.0 0.0 0.00 0.00 0.00 59 1016.1
20260502215542 28 148 0.0 0.0 0.00 0.00 0.00 59 1016.0
20260502215042 28 197 0.0 0.0 0.00 0.00 0.00 59 1016.0
20260502214602 28 160 0.0 0.0 0.00 0.00 0.00 58 1015.8
20260502214039 28 247 0.0 0.0 0.00 0.00 0.00 59 1015.7
20260502213543 28 166 0.0 0.0 0.00 0.00 0.00 58 1015.7
20260502213053 28 207 0.0 0.0 0.00 0.00 0.00 58 1015.7
20260502212540 28 143 0.0 0.0 0.00 0.00 0.00 58 1015.5
20260502212039 28 143 0.0 0.0 0.00 0.00 0.00 58 1015.4
20260502211538 28 143 0.0 0.0 0.00 0.00 0.00 57 1015.4
20260502211039 28 183 0.0 0.0 0.00 0.00 0.00 57 1015.3
20260502210538 28 125 0.0 0.0 0.00 0.00 0.00 57 1015.4
20260502210038 29 193 0.0 0.0 0.00 0.00 0.00 57 1015.4
20260502205537 29 141 0.0 0.0 0.00 0.00 0.00 56 1015.4
20260502205037 29 160 0.0 0.0 0.00 0.00 0.00 57 1015.4
20260502204540 28 129 0.0 0.0 0.00 0.00 0.00 58 1015.4
20260502204036 28 192 0.0 0.0 0.00 0.00 0.00 57 1015.4
20260502203535 28 116 0.0 0.0 0.00 0.00 0.00 57 1015.5
20260502203100 28 96 0.0 0.0 0.00 0.00 0.00 57 1015.6
20260502202535 29 117 0.0 0.0 0.00 0.00 0.00 56 1015.5
20260502202037 29 130 0.0 0.0 0.00 0.00 0.00 57 1015.5
20260502201537 29 168 0.0 0.0 0.00 0.00 0.00 56 1015.6
20260502201034 29 138 0.0 0.0 0.00 0.00 0.00 56 1015.5
20260502200535 29 139 0.0 0.0 0.00 0.00 0.00 56 1015.5
20260502200036 29 174 0.0 0.0 0.00 0.00 0.00 57 1015.5
20260502195533 29 152 0.0 0.0 0.00 0.00 0.00 57 1015.5
20260502195032 29 148 0.0 0.0 0.00 0.00 0.00 56 1015.6
20260502194532 29 175 0.0 0.0 0.00 0.00 0.00 55 1015.5
20260502194031 29 167 0.0 0.0 0.00 0.00 0.00 56 1015.7
20260502193532 30 169 0.0 0.0 0.00 0.00 0.00 55 1015.7
20260502193031 30 205 0.0 0.0 0.00 0.00 0.00 55 1015.7
20260502192530 29 171 0.0 0.0 0.00 0.00 0.00 56 1015.8
20260502192029 29 173 0.0 0.0 0.00 0.00 0.00 56 1015.8
20260502191528 29 142 0.0 0.0 0.00 0.00 0.00 55 1015.8
20260502191028 29 110 0.0 0.0 0.00 0.00 0.00 55 1015.8
20260502190528 29 188 0.0 0.0 0.00 0.00 0.00 56 1015.8
20260502190028 29 156 0.0 0.0 0.00 0.00 0.00 54 1015.9
20260502185527 30 124 0.0 0.0 0.00 0.00 0.00 54 1015.9
20260502185029 30 122 0.0 0.0 0.00 0.00 0.00 54 1016.0
20260502184528 30 151 0.0 0.0 0.00 0.00 0.00 52 1016.0
20260502184026 30 181 0.0 0.0 0.00 0.00 0.00 52 1016.2
20260502183526 30 218 0.0 0.0 0.00 0.00 0.00 50 1016.1
20260502183025 30 120 0.0 0.0 0.00 0.00 0.00 51 1016.1
20260502182524 30 207 0.0 0.0 0.00 0.00 0.00 53 1016.1
20260502182023 30 113 0.0 0.0 0.00 0.00 0.00 54 1016.2
20260502181524 29 134 0.0 0.0 0.00 0.00 0.00 55 1016.2
20260502181023 30 104 0.0 0.0 0.00 0.00 0.00 56 1016.3
20260502180523 30 128 0.0 0.0 0.00 0.00 0.00 57 1016.4
20260502164015 29 149 0.0 0.0 0.00 0.00 0.00 61 1017.8
20260502163515 29 152 0.0 0.0 0.00 0.00 0.00 61 1017.8
20260502163033 29 177 0.0 0.0 0.00 0.00 0.00 60 1017.8
20260502162615 29 199 0.0 0.0 0.00 0.00 0.00 60 1017.9
20260502162016 30 127 0.0 0.0 0.00 0.00 0.00 60 1017.9
20260502161523 30 222 0.0 0.0 0.00 0.00 0.00 60 1017.8
20260502161014 30 191 0.0 0.0 0.00 0.00 0.00 58 1018.0
20260502160516 30 131 0.0 0.0 0.00 0.00 0.00 58 1017.9
20260502152008 30 193 0.0 0.0 0.00 0.00 0.00 61 1018.3
20260502151508 30 129 0.0 0.0 0.00 0.00 0.00 62 1018.3
20260502151008 29 115 0.0 0.0 0.00 0.00 0.00 62 1018.3
20260502150508 30 176 0.0 0.0 0.00 0.00 0.00 61 1018.3
20260502130554 27 153 0.0 0.0 0.00 0.00 0.00 67 1017.8
20260502123546 26 98 0.0 0.0 0.00 0.00 0.00 69 1017.6
20260502123109 26 108 0.0 0.0 0.00 0.00 0.00 69 1017.4
20260502122545 26 79 0.0 0.0 0.00 0.00 0.00 68 1017.4
20260502122047 26 78 0.0 0.0 0.00 0.00 0.00 69 1017.4
20260502121544 26 92 0.0 0.0 0.00 0.00 0.00 69 1017.4
20260502121044 26 206 0.0 0.0 0.00 0.00 0.00 69 1017.3
20260502120544 26 117 0.0 0.0 0.00 0.00 0.00 69 1017.3
20260502115542 26 122 0.0 0.0 0.00 0.00 0.00 69 1017.1
20260502115043 26 170 0.0 0.0 0.00 0.00 0.00 69 1017.0
20260502114541 26 162 0.0 0.0 0.00 0.00 0.00 69 1017.0
20260502114042 26 150 0.0 0.0 0.00 0.00 0.00 69 1017.0
20260502113538 26 123 0.0 0.0 0.00 0.00 0.00 70 1016.9
20260502113047 25 165 0.0 0.0 0.00 0.00 0.00 71 1017.0
20260502112535 25 158 0.0 0.0 0.00 0.00 0.00 78 1016.9
20260502112035 23 306 0.0 0.0 0.00 0.00 0.00 80 1016.8
20260502111536 23 306 0.0 0.0 0.00 0.00 0.00 80 1016.9
20260502111032 22 306 0.0 0.0 0.00 0.00 0.00 80 1016.8
20260502110532 22 306 0.0 0.0 0.00 0.00 0.00 80 1016.8
20260502110030 22 315 0.0 0.0 0.00 0.00 0.00 80 1016.7
20260502105530 22 326 0.0 0.0 0.00 0.00 0.00 80 1016.6
20260502105030 22 289 0.0 0.0 0.00 0.00 0.00 81 1016.6
20260502104532 22 289 0.0 0.0 0.00 0.00 0.00 81 1016.5
20260502104028 22 309 0.0 0.0 0.00 0.00 0.00 81 1016.4
20260502103527 22 330 0.0 0.0 0.00 0.00 0.00 81 1016.5
20260502103026 21 328 0.0 0.0 0.00 0.00 0.00 81 1016.4
20260502102525 -17 0.0 0.0 0.00 0.00 0.00 1016.3
20260502102023 -17 0.0 0.0 0.00 0.00 0.00 1016.4
20260502101522 -17 0.0 0.0 0.00 0.00 0.00 1016.3
20260502101021 -17 0.0 0.0 0.00 0.00 0.00 1016.3
20260502100519 -17 0.0 0.0 0.00 0.00 0.00 1016.2
20260502091505 -17 0.0 0.0 0.00 0.00 0.00 1015.6
20260502091005 -17 0.0 0.0 0.00 0.00 0.00 1015.5
20260502090501 -17 0.0 0.0 0.00 0.00 0.00 1015.4
20260502090106 -17 0.0 0.0 0.00 0.00 0.00 1015.5
20260502071037 22 292 0.0 0.0 0.00 0.00 0.00 77 1015.3
20260502070536 22 280 0.0 0.0 0.00 0.00 0.00 76 1015.3
20260502070039 22 279 0.0 0.0 0.00 0.00 0.00 76 1015.3
20260502065535 22 277 0.0 0.0 0.00 0.00 0.00 76 1015.3
20260502065034 22 14 0.0 0.0 0.00 0.00 0.00 77 1015.3
20260502064546 22 14 0.0 0.0 0.00 0.00 0.00 77 1015.4
20260502064033 22 14 0.0 0.0 0.00 0.00 0.00 76 1015.4
20260502063532 22 333 0.0 0.0 0.00 0.00 0.00 76 1015.4
20260502063034 22 328 0.0 0.0 0.00 0.00 0.00 76 1015.4
20260502062532 22 312 0.0 0.0 0.00 0.00 0.00 76 1015.4
20260502062031 22 315 0.0 0.0 0.00 0.00 0.00 76 1015.4
20260502061532 22 315 0.0 0.0 0.00 0.00 0.00 75 1015.4
20260502061030 22 300 0.0 0.0 0.00 0.00 0.00 75 1015.4
20260502060529 22 300 0.0 0.0 0.00 0.00 0.00 75 1015.5
20260502060032 22 302 0.0 0.0 0.00 0.00 0.00 75 1015.5
20260502055529 22 299 0.0 0.0 0.00 0.00 0.00 75 1015.4
20260502055030 22 299 0.0 0.0 0.00 0.00 0.00 75 1015.4
20260502054534 22 299 0.0 0.0 0.00 0.00 0.00 75 1015.5
20260502054026 22 319 0.0 0.0 0.00 0.00 0.00 74 1015.5
20260502053525 22 322 0.0 0.0 0.00 0.00 0.00 74 1015.5
20260502053025 22 330 0.0 0.0 0.00 0.00 0.00 74 1015.5
20260502052525 22 330 0.0 0.0 0.00 0.00 0.00 74 1015.6
20260502052025 22 330 0.0 0.0 0.00 0.00 0.00 74 1015.7
20260502051529 22 330 0.0 0.0 0.00 0.00 0.00 74 1015.7
20260502051021 22 330 0.0 0.0 0.00 0.00 0.00 74 1015.8
20260502050521 22 356 0.0 0.0 0.00 0.00 0.00 74 1015.9
20260502050021 22 290 0.0 0.0 0.00 0.00 0.00 74 1015.9
20260502045523 22 274 0.0 0.0 0.00 0.00 0.00 74 1016.0
20260502045020 22 271 0.0 0.0 0.00 0.00 0.00 74 1016.0
20260502044519 22 271 0.0 0.0 0.00 0.00 0.00 74 1016.0
20260502044017 22 271 0.0 0.0 0.00 0.00 0.00 74 1016.1
20260502043517 22 259 0.0 0.0 0.00 0.00 0.00 73 1016.1
20260502043016 23 259 0.0 0.0 0.00 0.00 0.00 73 1016.3
20260502042516 23 259 0.0 0.0 0.00 0.00 0.00 73 1016.3
20260502042015 23 259 0.0 0.0 0.00 0.00 0.00 73 1016.4
20260502041515 23 259 0.0 0.0 0.00 0.00 0.00 73 1016.3
20260502041014 23 259 0.0 0.0 0.00 0.00 0.00 73 1016.4
20260502040516 23 259 0.0 0.0 0.00 0.00 0.00 73 1016.4
20260502040012 23 259 0.0 0.0 0.00 0.00 0.00 73 1016.5
20260502035514 23 259 0.0 0.0 0.00 0.00 0.00 73 1016.5
20260502035012 23 259 0.0 0.0 0.00 0.00 0.00 73 1016.6
20260502034511 23 241 0.0 0.0 0.00 0.00 0.00 72 1016.6
20260502034013 23 241 0.0 0.0 0.00 0.00 0.00 71 1016.6
20260502033511 23 241 0.0 0.0 0.00 0.00 0.00 70 1016.5
20260502033009 23 241 0.0 0.0 0.00 0.00 0.00 69 1016.5
20260502032509 23 234 0.0 0.0 0.00 0.00 0.00 68 1016.6
20260502032009 24 221 0.0 0.0 0.00 0.00 0.00 68 1016.6
20260502031509 24 213 0.0 0.0 0.00 0.00 0.00 68 1016.5
20260502031008 24 213 0.0 0.0 0.00 0.00 0.00 68 1016.6
20260502030509 24 213 0.0 0.0 0.00 0.00 0.00 68 1016.6
20260502030008 24 218 0.0 0.0 0.00 0.00 0.00 68 1016.5
20260502025517 24 219 0.0 0.0 0.00 0.00 0.00 68 1016.5
20260502025007 24 219 0.0 0.0 0.00 0.00 0.00 68 1016.6
20260502024509 24 208 0.0 0.0 0.00 0.00 0.00 68 1016.5
20260502024007 24 203 0.0 0.0 0.00 0.00 0.00 68 1016.5
20260502023507 24 203 0.0 0.0 0.00 0.00 0.00 68 1016.4
20260502023008 24 203 0.0 0.0 0.00 0.00 0.00 68 1016.4
20260502022506 24 212 0.0 0.0 0.00 0.00 0.00 68 1016.3
20260502022008 25 228 0.0 0.0 0.00 0.00 0.00 67 1016.1
20260502021505 25 211 0.0 0.0 0.00 0.00 0.00 67 1016.1
20260502021007 25 211 0.0 0.0 0.00 0.00 0.00 67 1016.1
20260502020506 25 210 0.0 0.0 0.00 0.00 0.00 67 1016.1
20260502020006 25 169 0.0 0.0 0.00 0.00 0.00 67 1016.1
20260502015510 25 133 0.0 0.0 0.00 0.00 0.00 67 1016.1
20260502015006 25 156 0.0 0.0 0.00 0.00 0.00 67 1016.0
20260502014508 25 167 0.0 0.0 0.00 0.00 0.00 66 1015.9
20260502014004 25 116 0.0 0.0 0.00 0.00 0.00 66 1016.0
20260502013504 25 170 0.0 0.0 0.00 0.00 0.00 66 1015.9
20260502013009 25 124 0.0 0.0 0.00 0.00 0.00 66 1015.8
20260502012505 25 205 0.0 0.0 0.00 0.00 0.00 66 1015.7
20260502012005 25 201 0.0 0.0 0.00 0.00 0.00 66 1015.7
20260502011504 25 171 0.0 0.0 0.00 0.00 0.00 66 1015.7
20260502011004 25 165 0.0 0.0 0.00 0.00 0.00 66 1015.6
20260502010511 25 146 0.0 0.0 0.00 0.00 0.00 66 1015.6
20260502010012 25 161 0.0 0.0 0.00 0.00 0.00 66 1015.6
20260502005503 25 134 0.0 0.0 0.00 0.00 0.00 66 1015.5
20260502005005 25 148 0.0 0.0 0.00 0.00 0.00 66 1015.6
20260502004508 25 160 0.0 0.0 0.00 0.00 0.00 66 1015.6
20260502004006 25 136 0.0 0.0 0.00 0.00 0.00 66 1015.5
20260502003502 25 136 0.0 0.0 0.00 0.00 0.00 66 1015.4
20260502003002 25 147 0.0 0.0 0.00 0.00 0.00 66 1015.4
20260502002502 25 134 0.0 0.0 0.00 0.00 0.00 66 1015.5
20260502002002 25 174 0.0 0.0 0.00 0.00 0.00 66 1015.5
20260502001502 25 134 0.0 0.0 0.00 0.00 0.00 66 1015.5
20260502001003 25 129 0.0 0.0 0.00 0.00 0.00 66 1015.4
20260502000600 25 117 0.0 0.0 0.00 0.00 0.00 66 1015.2
20260502000501 25 128 0.0 0.0 0.00 0.00 0.00 66 1015.2
20260502000001 25 129 0.0 0.0 0.00 0.00 0.00 66 1015.2
20260501235603 25 162 0.0 0.0 0.00 0.00 0.00 66 1015.1
20260501235101 25 177 0.0 0.0 0.00 0.00 0.00 65 1015.1
20260501234603 25 131 0.0 0.0 0.00 0.00 0.00 65 1015.2
20260501234100 26 135 0.0 0.0 0.00 0.00 0.00 65 1015.1
20260501233600 26 91 0.0 0.0 0.00 0.00 0.00 65 1015.0
20260501233103 26 91 0.0 0.0 0.00 0.00 0.00 65 1014.9